OBJECT D

Satellite information

Favourite Embed

Satellite Type and Status

UNKNOWNIN ORBIT

Key statistics

Satellite OBJECT D at a glance.

Uptime

1290

Days in orbit

Revolutions

≈ 15.4

Per day

Orbit

SSO

Sun Synchronous Orbit

Inclination

97.4

Latest

Satellite identification and parameters

Extended collection of information and parameters for OBJECT D.

Object identification

Identified? True

Debris? False

Object name: OBJECT D

International designator: 2022-019D

Object number (NORAD): 51827

Object ID (CCSDS): 51827

Country: PEOPLES REPUBLIC OF CHINA (PRC)

Current information (Y/N): Y

RCS size: MEDIUM

Orbital parameters

Period: 93.3 minutes

Inclination: 97.3893 deg

SMA: 6814.18 km

Apoapsis: 442.519 km

Periapsis: 429.57 km

RAAN: 330.1728 deg

Eccentricy: 0.00095018

Argument of periapsis: 86.4807 deg

Mean anomaly: 273.7528 deg

Mean motion: 15.43413818 rev/day

Mean motion (dot): 0.00024714 rev/day2

B* drag term: 0.00055311912 1/REarth

Two-line elements (TLE)

Creation date: Sept. 8, 2025, 6:18 p.m.

Reference frame: TEME

Reference center: EARTH

Epoch: Sept. 8, 2025, 2:48 p.m. UTC

TLE line 0: 0 OBJECT D

TLE line 1: 1 51827U 22019D 25251.61671707 .00024714 00000-0 55312-3 0 9994

TLE line 2: 2 51827 97.3893 330.1728 0009502 86.4807 273.7528 15.43413818195936

Live tracking on map

Real-time ground track for satellite OBJECT D.

In-orbit conjunctions

There are no conjunctions computed for OBJECT D, at the moment. Check back to stay up to date, as we update our databases every day.

Go to all conjunctions

Associated space launch

Carried 22 satellites to sun-synchronous orbit on a share-ride mission, including the Hainan-1 satellites.

OBJECT D was lifted into orbit during the mission ‘Long March 8 (Core Only) | Hainan-1 to 4 & others’, on board a Long March 8 (Core Only) space rocket.

The launch took place on Feb. 27, 2022, 3:06 a.m. from 201.

For more information about the launch, click the button.

Launch to space Long March 8 (Core Only) | Hainan-1 to 4 & others
Long March 8 (Core Only) | Hainan-1 to 4 & others

Agency: N/A

Status: Launch Successful

Launch date: Feb. 27, 2022, 3:06 a.m. UTC

Rocket: Long March 8 (Core Only)

Launch pad: 201

Location: Wenchang Space Launch Site, People's Republic of China

...

Latest news about this satellite

News about space launch
China launches new variant of Long March 8 rocket

Two recent launches from China set a new record for the largest number of satellites ever deployed by a Chinese rocket, and added a new radar imaging capability to the country’s remote sensing fleet.

News about space launch
China launches national record 22 satellites on Long March 8 commercial rideshare

China’s second Long March 8 rocket launched late Saturday carrying a domestic record 22 satellites for a range of commercial Chinese space companies.


Newsletter sign-up

Weekly statistics, charts and insights to help you stay on top of the space industry.